Regional Weather Roundup
Issued by NWS Mobile, AL

Home | Current Version | Previous Version | Text Only | Print | Product List | Glossary On
Versions: 1 2 3 4 5 6 7 8 9 10 11 12 13 14 15 16 17 18 19 20 21 22 23 24 25 26 27 28 29 30 31 32 33 34 35 36 37 38 39 40 41 42 43 44 45 46 47 48 49 50
000
ASUS44 KMOB 291610
RWRMOB
REGIONAL WEATHER ROUNDUP
NATIONAL WEATHER SERVICE MOBILE AL
1000 AM CST MON DEC 29 2014

NOTE: "FAIR" INDICATES FEW OR NO CLOUDS BELOW 12,000 FEET WITH NO
      SIGNIFICANT WEATHER AND/OR OBSTRUCTIONS TO VISIBILITY.

  * THESE STATIONS ARE PART OF THE UNIVERSITY OF SOUTH ALABAMA
    MESONET AND ARE NOT UNDER NWS OR FAA QUALITY CONTROL.

ALZ061>064-291700-
COASTAL ALABAMA

CITY           SKY/WX    TMP DP  RH WIND       PRES   REMARKS
MOBILE REG APT CLOUDY    56  55  97 NE6       30.16S FOG
BROOKLEY FIELD CLOUDY    58  56  93 N6        30.17S
USA CAMPUS*      N/A     57  55  94 NE2       30.16S
DOG RIVER*     NOT AVBL


CITY           SKY/WX    TMP DP  RH WIND       PRES   REMARKS
MOUNT VERNON*  NOT AVBL
SARALAND*      NOT AVBL
BAY MINETTE*   NOT AVBL
LOXLEY*          N/A     57  55  94 NW6       30.15R
ROBERTSDALE*     N/A     57  57 100 NE3       30.15R
FAIRHOPE*        N/A     57  57 100 N2        30.15S
ELBERTA*         N/A     59  57  94 N8        30.13R
FOLEY*           N/A     59  59 100 NW5       30.11R
GRAND BAY*       N/A     57  55  94 N5        30.15R
DAUPHIN ISLND* NOT AVBL
BON SCOUR NWR* NOT AVBL
GULF SHORES    CLOUDY    58  56  94 N5        30.14S

$$

ALZ051>060-291700-
INTERIOR SOUTHWEST AND SOUTH CENTRAL ALABAMA

CITY           SKY/WX    TMP DP  RH WIND       PRES   REMARKS
GREENVILLE     CLOUDY    59  55  87 NE5       30.13F
EVERGREEN      CLOUDY    58  55  90 N5        30.15S
CASTLEBERRY*   NOT AVBL
ATMORE*          N/A     55  55 100 N6        30.17R
DIXIE*           N/A     59  57  94 CALM      30.13R
ANDALUSIA/OPP  CLOUDY    63  57  81 N5        30.14S
ANDALUSIA*       N/A     57  57 100 VRB5      30.15R
FLORALA APT    CLOUDY    61  57  88 N5        30.15R
FLORALA*         N/A     59  59 100 NW5       30.11R

$$

FLZ001>006-291700-
WESTERN FLORIDA PANHANDLE

CITY           SKY/WX    TMP DP  RH WIND       PRES   REMARKS
PENSACOLA      CLOUDY    59  57  93 NW10      30.14R
NAS PENSACOLA  CLOUDY    60  58  92 NW8       30.14R
MILTON         CLOUDY    59  56  89 NW7       30.14R
WHTNG S FIELD  CLOUDY    62  58  86 N9        30.15R


CITY           SKY/WX    TMP DP  RH WIND       PRES   REMARKS
WALNUT HILL*   NOT AVBL
JAY*           NOT AVBL
DUKE FIELD     CLOUDY    60  59  94 N7        30.13R
CRESTVIEW      CLOUDY    61  58  90 N6        30.14R
VALPARAISO     CLOUDY    62  61  96 NW8       30.13R
DESTIN         CLOUDY    63  61  93 N8        30.12R

$$

MSZ076-079-291700-
INTERIOR SOUTHEAST MISSISSIPPI

CITY           SKY/WX    TMP DP  RH WIND       PRES   REMARKS
LEAKESVILLE*   NOT AVBL
AGRICOLA*      NOT AVBL

$$

MARINE OBSERVATIONS

STATION/POSITION TIME  TEMP    WIND        PRES    WAVE
                       AIR SEA DIR/SP/G            HT/PER
                 (UTC) (F)     (DEG/KT/KT) (MB)    (FT/S)
PASCAGOULA       1600   58      10/  6/  8 1020.8S
PETIT BOIS ISLND 1600   58     360/ 10/ 12 1020.9F
GRAND BAY        1500   57     340/  8     1021.0S
KATRINA CUT      1500   58     360/ 11     1021.7R
CEDAR POINT      1500   57     350/  9     1021.0R
E DAUPHIN ISLAND 1500   58     330/ 11/ 12 1020.3R
MIDDLE BAY LIGHT 1500   54     360/ 12     1020.3R
USCG MOBILE BAY  1600   57 58  350/  5/  7 1019.9F
STATE DOCKS      1600   57 55              1020.8S
MEAHER PARK      1500   57     340/  5     1021.3R
WEEKS BAY        1500   58                   N/A
FORT MORGAN      1600   58      10/ 12/ 13 1020.3R
12 S ORANGE BCH  1600   61 68  340/ 14/ 16 1019.6R   2/ 7
PENSACOLA BAY    1600   62 60  340/  5/  8 1020.8R
64 S DAUPHIN ISL 1600   67 73  240/  2/  2 1019.8R   3/ 4

$$

SELECTED LOCATIONS ACROSS THE REGION

CITY           SKY/WX    TMP DP  RH WIND       PRES   REMARKS
NEW ORLEANS    CLOUDY    57  53  86 NW5       30.17R
GULFPORT       CLOUDY    57  55  93 N6        30.15R
PASCAGOULA AP  CLOUDY    59  56  89 N5        30.16R
PASCAGOULA*      N/A     57  57 100 N3        30.16R
HATTIESBURG    CLOUDY    55  52  89 N5        30.18R
LAUREL         CLOUDY    52  48  87 CALM      30.18R
MERIDIAN       CLOUDY    49  48  97 VRB3      30.18S
JACKSON        CLOUDY    46  45  96 N6        30.20R
MONTGOMERY     CLOUDY    59  54  83 CALM      30.15S
TROY           CLOUDY    60  56  86 CALM      30.15R
KINSTON*       NOT AVBL
GENEVA*          N/A     61  59  94 N5        30.15R
ASHFORD*         N/A     57  57 100 VRB5      30.15R
DOTHAN         LGT RAIN  61  58  90 N6        30.16R
PANAMA CITY    CLOUDY    63  61  93 SE3       30.11R

$$



USA.gov is the U.S. government's official web portal to all federal, state and local government web resources and services.